{"data":{"norad_id":60027,"epoch":"2026-05-25T02:17:12.329376Z","epoch_age_seconds":77101,"freshness":"FRESH","line1":"1 60027U 24111M   26145.09528159  .00000303  00000+0  22347-4 0  9998","line2":"2 60027  53.1603  80.5733 0001298  82.4529 277.6619 15.30194347110738","mean_motion":15.30194347,"eccentricity":0.0001298,"inclination_deg":53.1603,"raan_deg":80.5733,"arg_perigee_deg":82.4529,"mean_anomaly_deg":277.6619,"bstar":2.2347e-5,"rev_number":11073,"period_min":94.105693360008,"perigee_km":474.34238102084,"apogee_km":476.12151559982,"semimajor_km":6853.3689483103,"source":"CELESTRAK","updated_at":"2026-05-25T13:38:19.132956Z"}}